Regional Weather Roundup
Issued by NWS

Home | Current Version | Previous Version | Graphics & Text | Print | Product List | Glossary On
Versions: 1 2 3 4 5 6 7 8 9 10 11 12 13 14 15 16 17 18 19 20 21 22 23 24 25 26 27 28 29 30 31 32 33 34 35 36 37 38 39 40 41 42 43 44 45 46 47 48 49 50
000
ASUS43 KFSD 211310
RWRSD

WEATHER ROUNDUP FOR SOUTH DAKOTA
NATIONAL WEATHER SERVICE SIOUX FALLS SD
800 AM CDT SUN SEP 21 2014

NOTE: "FAIR" INDICATES FEW OR NO CLOUDS BELOW 12,000 FEET WITH NO
SIGNIFICANT WEATHER AND/OR OBSTRUCTIONS TO VISIBILITY.


SDZ001>005-009-010-012>017-211400-
NORTHWEST AND NORTH CENTRAL SOUTH DAKOTA

CITY           SKY/WX    TMP DP  RH WIND       PRES   REMARKS
BUFFALO          N/A     41  34  76 W7        30.27R
FAITH            N/A     45  36  70 W9        30.31R
MOBRIDGE       CLEAR     44  41  89 CALM      30.25R
$$

SDZ012>016-024>037-041>051-057-063-072>074-211400-
SOUTHWEST AND SOUTH CENTRAL SOUTH DAKOTA

CITY           SKY/WX    TMP DP  RH WIND       PRES   REMARKS
RAPID CTY ARPT CLEAR     42  35  76 NW7       30.34R
PIERRE         CLEAR     46  41  82 NW9       30.26R
CUSTER         CLEAR     41  32  70 W7        30.40R
ELLSWORTH AFB  CLEAR     44  37  75 NW8       30.33R
PHILIP         CLEAR     40  36  86 W8        30.31R
PINE RIDGE     CLEAR     35  32  88 CALM      30.35R
WINNER         FAIR      48  39  71 W9        30.28R
$$

SDZ004>011-016>023-039-040-211400-
NORTHEAST SOUTH DAKOTA

CITY           SKY/WX    TMP DP  RH WIND       PRES   REMARKS
ABERDEEN       CLEAR     49  43  80 NW8       30.21R
WATERTOWN      CLEAR     50  45  83 NW13      30.17R
SISSETON         N/A     51  48  89 NW10      30.16R
$$

SDZ017-020-022-023-036>040-048>070-211400-
SOUTHEAST SOUTH DAKOTA

CITY           SKY/WX    TMP DP  RH WIND       PRES   REMARKS
SIOUX FALLS    CLEAR     51  44  77 NW9       30.18R
HURON          CLEAR     47  41  80 W7        30.22R
CHAMBERLAIN    CLEAR     48  40  72 W9        30.26R
MITCHELL       CLEAR     47  42  83 W7        30.23R
YANKTON        CLEAR     50  43  76 W12       30.22R
$$

ABBREVIATIONS USED IN REMARKS
   TC - TEMPERATURE IN CELSIUS
  WCI - WIND CHILL INDEX
   HX - HEAT INDEX
  VSB - VISIBILITY



USA.gov is the U.S. government's official web portal to all federal, state and local government web resources and services.